Location: Newark
(25.6108°S, 54.5803°W)
Time: 23:22:41
(UTC+00:00)

Tiros 1 - Pass Details

Date: 28 October 2020
Orbit: 630 x 664 km, 48.4° (Epoch: 29 November)

Event Time Altitude Azimuth Distance (km) Brightness Sun altitude
Rises 03:41:25 0° 250° (WSW) 2,991 - -50.9°
Reaches altitude 10° 03:44:50 10° 275° (W) 2,063 - -50.7°
Maximum altitude 03:47:16 14° 306° (NW) 1,800 - -50.7°
Drops below altitude 10° 03:49:40 10° 337° (NNW) 2,041 - -50.6°
Sets 03:53:02 0° 2° (N) 2,933 - -50.4°
